| time (UTC) | temp F | wind direction | speed knots | gust knots | rain 1hr in | rain 24hr in | rain mn in | humidity % | barometer mb |
| 20260503050018 | 31 | 317 | 0.0 | 0.0 | 0.00 | 0.00 | 0.00 | 89 | 1016.6 |
| 20260503044522 | 32 | 317 | 0.0 | 0.0 | 0.00 | 0.00 | 0.00 | 90 | 1016.6 |
| 20260503043026 | 33 | 317 | 0.0 | 0.0 | 0.00 | 0.00 | 0.00 | 90 | 1016.5 |
| 20260503041510 | 33 | 317 | 0.0 | 0.0 | 0.00 | 0.00 | 0.00 | 90 | 1016.5 |
| 20260503040027 | 33 | 317 | 0.0 | 0.0 | 0.00 | 0.00 | 0.00 | 90 | 1016.7 |
| 20260503034504 | 33 | 317 | 0.0 | 0.0 | 0.00 | 0.00 | 0.00 | 90 | 1016.7 |
| 20260503033004 | 33 | 317 | 0.0 | 0.0 | 0.00 | 0.00 | 0.00 | 88 | 1016.7 |
| 20260503031508 | 33 | 317 | 0.0 | 0.9 | 0.00 | 0.00 | 0.00 | 87 | 1016.6 |
| 20260503030009 | 34 | 317 | 0.0 | 0.0 | 0.00 | 0.00 | 0.00 | 88 | 1016.6 |
| 20260503024516 | 34 | 317 | 0.0 | 0.0 | 0.00 | 0.00 | 0.00 | 86 | 1016.7 |
| 20260503023004 | 35 | 317 | 0.0 | 0.0 | 0.00 | 0.00 | 0.00 | 86 | 1016.7 |
| 20260503021507 | 35 | 317 | 0.0 | 0.0 | 0.00 | 0.00 | 0.00 | 86 | 1016.7 |
| 20260503020009 | 36 | 317 | 0.0 | 0.0 | 0.00 | 0.00 | 0.00 | 84 | 1016.6 |
| 20260503014512 | 37 | 317 | 0.0 | 0.0 | 0.00 | 0.00 | 0.00 | 81 | 1016.6 |
| 20260503013016 | 38 | 317 | 0.0 | 0.0 | 0.00 | 0.00 | 0.00 | 78 | 1016.5 |
| 20260503011508 | 40 | 317 | 0.0 | 0.0 | 0.00 | 0.00 | 0.00 | 76 | 1016.5 |
| 20260503010008 | 42 | 317 | 0.0 | 0.0 | 0.00 | 0.00 | 0.00 | 72 | 1016.5 |
| 20260503004509 | 43 | 317 | 0.0 | 0.0 | 0.00 | 0.00 | 0.00 | 67 | 1016.4 |
| 20260503003013 | 44 | 317 | 0.0 | 0.0 | 0.00 | 0.00 | 0.00 | 61 | 1016.5 |
| 20260503001518 | 45 | 317 | 0.0 | 0.9 | 0.00 | 0.00 | 0.00 | 56 | 1016.6 |
| 20260503000022 | 46 | 317 | 0.0 | 0.9 | 0.00 | 0.00 | 0.00 | 52 | 1016.5 |
| 20260502234523 | 47 | 317 | 0.0 | 3.5 | 0.00 | 0.00 | 0.00 | 51 | 1016.5 |
| 20260502233011 | 47 | 246 | 0.9 | 2.6 | 0.00 | 0.00 | 0.00 | 50 | 1016.5 |
| 20260502231517 | 47 | 264 | 0.0 | 1.7 | 0.00 | 0.00 | 0.00 | 51 | 1016.6 |
| 20260502230021 | 47 | 264 | 0.0 | 3.5 | 0.00 | 0.00 | 0.00 | 51 | 1016.7 |
| 20260502224525 | 47 | 284 | 0.9 | 4.3 | 0.00 | 0.00 | 0.00 | 49 | 1016.7 |
| 20260502223007 | 47 | 239 | 0.9 | 6.1 | 0.00 | 0.00 | 0.00 | 48 | 1016.7 |
| 20260502221511 | 48 | 246 | 2.6 | 8.7 | 0.00 | 0.00 | 0.00 | 44 | 1016.7 |
| 20260502220025 | 48 | 288 | 1.7 | 6.1 | 0.00 | 0.00 | 0.00 | 46 | 1016.7 |
| 20260502214523 | 47 | 316 | 0.9 | 6.1 | 0.00 | 0.00 | 0.00 | 49 | 1016.7 |
| 20260502213031 | 47 | 276 | 1.7 | 5.2 | 0.00 | 0.00 | 0.00 | 44 | 1016.6 |
| 20260502211510 | 48 | 269 | 1.7 | 7.8 | 0.00 | 0.00 | 0.00 | 46 | 1016.7 |
| 20260502210019 | 47 | 248 | 0.9 | 6.1 | 0.00 | 0.00 | 0.00 | 49 | 1016.9 |
| 20260502204519 | 47 | 266 | 1.7 | 7.8 | 0.00 | 0.00 | 0.00 | 45 | 1016.9 |
| 20260502203026 | 47 | 281 | 0.0 | 7.0 | 0.00 | 0.00 | 0.00 | 47 | 1017.0 |
| 20260502201535 | 47 | 285 | 1.7 | 7.8 | 0.00 | 0.00 | 0.00 | 47 | 1017.1 |
| 20260502200012 | 47 | 244 | 2.6 | 7.0 | 0.00 | 0.00 | 0.00 | 44 | 1017.3 |
| 20260502194533 | 48 | 338 | 2.6 | 7.8 | 0.00 | 0.00 | 0.00 | 43 | 1017.4 |
| 20260502193029 | 47 | 241 | 1.7 | 11.3 | 0.00 | 0.00 | 0.00 | 47 | 1017.5 |
| 20260502191507 | 47 | 271 | 1.7 | 7.8 | 0.00 | 0.00 | 0.00 | 46 | 1017.5 |
| 20260502190026 | 47 | 236 | 2.6 | 10.4 | 0.00 | 0.00 | 0.00 | 44 | 1017.8 |
| 20260502184519 | 48 | 355 | 3.5 | 7.8 | 0.00 | 0.00 | 0.00 | 41 | 1017.8 |
| 20260502183007 | 47 | 269 | 1.7 | 6.1 | 0.00 | 0.00 | 0.00 | 44 | 1017.8 |
| 20260502181503 | 47 | 360 | 1.7 | 7.0 | 0.00 | 0.00 | 0.00 | 48 | 1017.9 |
| 20260502163039 | 45 | 269 | 1.7 | 7.8 | 0.00 | 0.00 | 0.00 | 48 | 1018.5 |
| 20260502161520 | 46 | 15 | 2.6 | 7.8 | 0.00 | 0.00 | 0.00 | 54 | 1018.5 |
| 20260502151514 | 45 | 331 | 5.2 | 9.6 | 0.00 | 0.00 | 0.00 | 56 | 1018.4 |
| 20260502123022 | 38 | 360 | 4.3 | 8.7 | 0.00 | 0.00 | 0.00 | 73 | 1018.3 |
| 20260502121526 | 37 | 345 | 2.6 | 7.0 | 0.00 | 0.00 | 0.00 | 76 | 1018.2 |
| 20260502114517 | 35 | 299 | 0.9 | 4.3 | 0.00 | 0.00 | 0.00 | 80 | 1018.1 |
| 20260502113022 | 33 | 355 | 0.0 | 4.3 | 0.00 | 0.00 | 0.00 | 83 | 1018.0 |
| 20260502111527 | 31 | 311 | 0.0 | 1.7 | 0.00 | 0.00 | 0.00 | 87 | 1017.9 |
| 20260502110024 | 30 | 355 | 0.0 | 0.9 | 0.00 | 0.01 | 0.00 | 87 | 1017.6 |
| 20260502104514 | 30 | 355 | 0.0 | 0.0 | 0.00 | 0.01 | 0.00 | 86 | 1017.7 |
| 20260502103018 | 30 | 355 | 0.0 | 0.0 | 0.00 | 0.01 | 0.00 | 85 | 1017.8 |
| 20260502101503 | 31 | 355 | 0.0 | 0.0 | 0.00 | 0.01 | 0.00 | 83 | 1017.6 |
| 20260502091503 | 34 | 355 | 0.0 | 0.0 | 0.00 | 0.01 | 0.00 | 79 | 1017.3 |
| 20260502071515 | 39 | 5 | 0.0 | 4.3 | 0.00 | 0.03 | 0.00 | 75 | 1017.0 |
| 20260502070020 | 39 | 5 | 0.9 | 3.5 | 0.00 | 0.05 | 0.00 | 76 | 1017.0 |
| 20260502064535 | 38 | 5 | 0.9 | 4.3 | 0.00 | 0.06 | 0.00 | 78 | 1017.1 |
| 20260502063007 | 38 | 5 | 0.0 | 1.7 | 0.00 | 0.07 | 0.00 | 80 | 1017.1 |
| 20260502061510 | 39 | 5 | 0.0 | 0.9 | 0.00 | 0.07 | 0.00 | 80 | 1017.1 |
| 20260502060018 | 39 | 5 | 0.9 | 3.5 | 0.00 | 0.07 | 0.00 | 79 | 1017.2 |
| 20260502054520 | 39 | 5 | 1.7 | 4.3 | 0.00 | 0.08 | 0.00 | 79 | 1017.3 |
| 20260502053025 | 38 | 355 | 0.9 | 4.3 | 0.00 | 0.08 | 0.00 | 80 | 1017.3 |
| 20260502051515 | 38 | 249 | 0.0 | 0.9 | 0.00 | 0.08 | 0.00 | 82 | 1017.4 |